Wind_Speed
6 8 6 3 2 1 2 3 6 5 5 4 6 4 8 6 4 4 24 30 31 36 37 36 35 35 31 28 25 21 19 18 18 17 14 12 11 11 11 12 11 11 10 11 11 11 10 9 10
7 6 5 5 3 2 7 5 5 3 2 3 7 4 6 9 5 13 27 28 32 32 35 35 34 32 29 27 24 20 18 18 17 15 12 12 10 10 10 12 12 12 12 12 12 11 9 8 9
6 5 5 1 3 6 8 5 1 2 3 6 4 5 7 9 6 22 24 30 31 32 33 33 32 30 27 25 22 18 18 18 16 13 12 11 10 10 10 11 11 11 12 11 10 10 9 9 8
5 7 8 8 7 6 6 5 7 7 4 4 5 3 8 10 10 24 30 32 31 31 31 30 30 28 25 23 20 17 18 16 14 13 11 10 10 11 11 10 10 11 11 10 10 11 10 9 8
4 6 2 2 8 7 5 6 8 4 2 2 4 5 14 15 22 27 34 35 32 31 30 29 29 26 23 21 18 17 16 14 12 11 10 10 10 11 10 10 10 10 10 10 10 10 10 8 8
5 5 3 7 7 6 6 7 6 3 3 5 8 14 22 24 23 31 34 35 30 30 30 29 28 25 22 20 18 16 15 13 11 11 11 10 9 10 11 11 10 10 9 9 9 9 8 8 8
2 3 2 2 6 6 4 5 5 4 7 10 14 21 24 28 28 31 33 33 30 29 29 29 27 25 22 20 18 16 14 12 11 11 10 9 9 10 10 10 9 9 8 8 8 9 8 7 6
3 2 1 4 6 6 3 5 5 6 7 14 12 18 23 31 29 30 32 32 30 28 29 29 27 25 22 20 18 16 14 12 11 9 9 8 8 8 8 8 7 7 9 8 7 8 9 10 9
4 2 3 5 5 4 4 4 4 5 8 13 12 15 19 27 30 30 31 32 31 29 28 28 25 24 22 20 18 16 13 11 10 9 9 9 8 6 6 7 8 7 7 7 5 7 7 10 9
6 5 5 7 3 1 6 5 2 6 7 12 11 11 18 21 24 28 29 29 29 28 29 27 26 24 22 20 18 15 13 11 9 10 8 7 7 5 5 7 6 6 6 6 5 5 8 10 6
8 7 8 3 4 5 7 7 3 6 9 10 9 4 14 19 19 25 26 25 25 26 27 27 26 24 22 20 18 15 13 11 8 7 6 5 6 6 5 4 6 6 7 8 7 7 6 9 10
10 14 9 5 2 4 6 6 5 3 5 8 4 4 8 18 15 18 22 23 26 26 26 26 26 24 22 20 18 15 13 10 7 6 4 5 4 2 3 3 4 7 6 5 6 5 7 9 11
16 13 11 8 5 5 5 5 5 7 5 5 3 5 11 17 15 19 21 23 24 25 25 25 25 24 22 20 18 16 13 10 8 6 5 4 3 1 1 3 4 5 5 6 7 6 8 9 9
13 17 14 12 9 8 8 8 8 8 13 9 6 5 10 16 16 19 23 24 25 25 25 25 24 24 22 19 17 14 12 10 8 6 5 4 3 2 2 1 3 5 6 6 6 8 10 9 8
19 14 14 17 13 11 10 13 15 11 17 14 11 7 10 17 21 20 20 22 24 25 25 25 25 24 22 19 17 15 12 10 9 8 7 6 5 2 1 2 5 6 6 4 7 7 7 10 9
21 18 18 18 17 16 13 9 7 13 14 18 16 13 10 15 19 20 21 22 24 26 26 25 25 23 22 19 17 15 13 11 10 9 8 9 6 5 3 1 3 6 6 5 6 8 7 7 6
20 21 23 15 15 14 16 12 7 12 15 19 19 18 15 11 17 22 23 23 25 27 27 27 26 23 21 19 17 16 14 12 10 10 10 10 9 8 5 3 1 3 4 3 3 5 5 5 4
26 26 21 21 15 18 16 16 10 11 14 21 18 18 19 17 13 20 25 25 27 28 28 27 26 24 22 21 19 17 15 13 11 10 10 11 12 10 7 3 2 2 1 1 4 5 7 6 6
20 27 25 23 20 17 20 17 11 11 17 19 20 21 19 20 11 18 23 27 29 30 30 29 28 26 24 22 19 17 15 14 11 10 10 12 11 9 10 4 1 2 4 5 6 7 7 8 6
29 23 27 24 17 14 17 16 12 13 16 18 10 11 21 20 23 19 23 27 29 29 30 30 28 28 25 23 20 18 15 14 13 13 12 11 11 11 11 7 5 5 7 7 9 10 11 10 8
34 33 28 23 15 16 18 22 19 16 15 16 19 18 17 21 24 22 23 24 27 29 29 29 28 28 26 24 23 20 19 18 16 15 13 12 11 11 11 10 9 9 11 10 13 12 11 11 10
36 32 27 24 23 24 19 22 24 23 20 21 18 19 21 20 25 26 22 25 24 26 28 28 28 27 26 25 24 21 18 15 13 13 13 14 14 14 13 13 12 15 16 15 15 12 10 9 11
34 26 25 28 25 25 27 19 27 20 22 24 23 21 20 24 24 24 21 18 19 23 28 28 28 28 27 26 24 22 20 17 16 16 15 16 15 14 14 13 15 20 21 18 17 12 8 8 10
26 22 25 22 26 27 35 32 32 30 27 24 23 22 18 24 25 26 22 19 23 25 25 28 29 28 28 27 26 24 21 18 17 15 15 14 13 13 12 13 19 24 24 21 18 13 8 6 7
31 25 16 18 23 21 31 35 36 17 29 25 24 23 18 20 21 23 28 28 23 25 28 30 30 29 28 27 27 26 22 21 19 18 18 18 16 14 12 13 20 26 26 24 21 16 12 6 3
38 36 22 18 15 19 27 26 40 33 27 14 23 24 23 22 22 21 22 26 27 22 23 21 29 28 30 29 27 25 24 23 22 22 21 19 17 16 16 16 22 27 28 26 24 20 17 13 7
35 44 37 12 12 13 26 34 25 17 30 32 32 20 26 26 21 20 21 21 24 28 27 25 22 22 30 31 30 30 27 28 26 24 23 21 19 18 19 19 23 29 30 28 25 23 20 17 14
28 34 34 32 17 17 18 26 23 25 32 25 28 28 24 30 25 21 18 21 20 22 25 27 28 25 22 25 27 30 30 30 29 27 26 24 20 18 20 21 25 31 32 30 27 25 22 19 15
39 31 40 31 27 14 12 21 25 29 22 27 28 27 27 27 26 26 19 18 20 20 23 26 28 28 29 28 24 21 22 33 32 31 29 27 24 21 23 24 26 32 34 31 30 27 24 21 18
38 35 41 28 32 36 21 14 7 11 21 23 24 24 26 25 24 23 22 19 13 15 20 24 28 30 30 28 29 27 25 21 25 31 30 30 29 25 24 25 26 33 36 34 33 30 27 23 21
Wind_Direction
86 80 116 115 94 133 50 65 82 89 98 93 126 134 164 153 134 148 146 139 140 136 139 138 140 141 138 135 130 122 119 120 124 123 122 118 111 103 101 92 88 89 88 89 86 94 98 96 83
58 94 75 92 62 127 68 61 87 88 109 137 147 99 150 201 153 141 144 143 143 139 138 137 140 141 138 134 127 123 120 120 120 122 125 116 108 99 94 93 92 89 89 86 84 87 92 93 94
94 73 76 19 33 52 67 45 96 112 107 134 159 142 148 187 169 156 150 155 143 144 143 141 143 143 139 132 128 126 122 118 119 125 117 110 108 104 101 98 92 87 86 84 79 83 89 92 96
86 81 84 76 74 58 56 77 105 109 122 158 161 211 169 167 150 153 160 154 151 147 149 149 147 143 140 133 133 128 121 122 124 116 110 112 106 103 102 98 97 95 94 90 79 73 76 77 73
76 46 98 65 81 66 65 103 97 100 145 152 152 242 177 171 153 154 154 157 153 153 153 153 149 145 142 139 136 127 126 126 118 109 111 108 108 99 96 95 93 92 89 80 76 70 67 58 55
60 30 239 80 71 64 85 99 91 102 98 126 133 138 137 147 152 151 151 153 154 157 156 154 151 150 147 143 136 132 131 124 112 110 111 110 105 93 91 92 92 84 74 68 66 57 53 42 35
41 296 319 78 77 75 107 111 81 104 116 130 132 133 136 143 148 152 152 156 157 161 159 156 156 155 152 145 142 139 134 123 117 115 118 111 99 92 91 90 86 78 68 68 66 46 42 34 24
220 315 231 138 104 91 114 104 111 116 133 138 137 146 148 146 151 155 157 161 163 163 160 161 160 158 154 150 150 147 138 132 122 120 114 105 98 93 90 88 81 73 64 63 48 34 34 29 21
213 200 161 135 123 93 160 114 68 114 135 143 142 161 157 152 157 161 164 166 167 165 165 165 165 162 158 157 157 151 145 136 125 122 113 107 106 98 86 79 74 69 57 58 41 24 30 19 9
204 224 150 145 91 75 187 151 28 111 141 156 151 163 175 168 164 168 170 169 171 169 169 168 168 165 164 164 161 156 151 141 132 129 114 112 104 87 85 77 64 38 34 26 24 11 22 66 29
220 193 172 150 54 78 160 162 117 131 162 176 175 159 181 185 175 175 175 174 173 170 172 170 171 170 170 168 165 163 158 148 144 144 136 125 113 97 95 47 28 17 25 8 11 26 4 15 12
207 187 181 185 80 81 149 172 171 145 156 177 166 190 182 190 184 180 179 177 176 176 173 173 174 175 173 172 171 168 166 162 160 152 148 130 143 116 92 65 31 35 354 22 28 11 356 6 14
210 200 214 222 233 235 213 197 194 188 216 219 171 166 173 195 189 182 183 184 182 180 177 178 178 176 176 176 177 175 174 176 179 178 177 166 165 124 93 62 49 33 12 27 20 3 357 13 9
223 222 227 232 237 240 227 229 224 213 220 231 217 146 172 184 189 188 189 188 185 184 183 183 180 180 180 182 181 182 185 190 191 199 197 193 188 140 120 52 19 19 24 1 21 341 358 15 360
222 225 235 225 214 231 234 245 238 212 211 221 227 212 179 179 197 195 191 192 187 189 188 188 185 185 183 186 187 193 198 201 207 214 214 212 207 190 220 3 357 6 13 358 340 340 348 343 339
225 237 229 226 224 229 224 234 225 202 216 221 219 225 220 202 193 199 196 195 193 194 194 192 191 190 188 190 195 201 207 209 216 226 227 219 212 209 196 244 351 3 354 358 360 360 11 321 344
213 220 213 202 209 216 215 221 247 227 207 211 216 216 224 221 197 197 199 199 196 198 197 197 197 196 195 196 201 209 213 214 218 228 233 229 221 218 220 198 311 342 335 357 14 3 7 10 27
212 219 220 215 216 217 232 237 260 220 202 204 215 218 217 225 223 203 199 201 201 201 201 200 202 201 201 203 208 214 220 218 220 225 229 225 221 231 217 189 265 314 85 102 68 64 75 65 67
220 223 224 224 224 236 235 241 247 228 206 200 212 221 221 224 224 214 206 203 204 202 203 201 203 202 206 209 213 219 224 225 222 226 228 220 223 229 219 205 236 256 157 138 114 104 79 75 80
218 220 223 222 226 235 233 241 240 228 213 207 207 230 229 220 221 217 208 206 209 206 206 203 204 205 206 210 213 217 222 223 217 220 222 222 228 234 227 229 243 211 164 149 130 109 96 80 69
220 221 223 226 229 238 244 248 238 233 222 214 217 216 216 231 229 229 220 210 209 208 208 206 207 208 208 209 212 212 214 215 214 219 224 228 236 242 240 233 240 190 180 156 141 121 95 72 54
222 223 227 232 232 245 231 257 235 231 231 225 225 235 216 207 228 229 234 220 214 210 210 209 208 211 209 211 216 214 216 221 222 223 226 229 233 240 245 246 219 184 179 167 155 132 102 72 56
228 222 228 232 236 243 241 245 245 226 226 229 227 229 224 211 216 219 223 218 215 210 209 210 211 213 213 213 216 215 215 214 215 218 222 225 232 239 247 244 208 187 183 177 169 158 120 90 66
221 218 224 232 230 239 236 235 246 232 231 226 226 229 232 220 214 217 218 220 215 214 211 215 217 216 216 216 217 216 216 219 223 227 232 238 242 246 247 239 209 190 189 186 183 180 167 122 79
203 197 196 216 222 234 231 234 231 235 229 230 222 229 236 231 209 218 218 221 214 215 216 218 220 223 225 225 222 219 219 222 225 227 231 235 237 238 240 238 207 198 193 196 196 196 199 182 129
202 200 206 211 214 224 221 234 238 236 231 217 222 223 231 223 203 216 225 227 221 218 222 221 226 223 225 228 230 227 225 227 228 228 233 237 239 235 229 223 205 201 201 203 206 207 214 218 216
202 209 208 240 226 258 225 227 238 227 228 229 232 226 215 220 215 216 219 220 226 218 214 221 224 224 228 231 235 234 234 235 237 237 239 239 236 234 231 223 209 204 205 207 209 211 215 223 226
208 209 210 224 237 231 228 231 225 225 223 217 218 215 212 213 220 224 224 221 219 224 226 226 229 230 230 232 235 237 239 239 239 237 236 239 239 234 234 230 218 210 208 210 211 213 215 218 222
199 204 211 218 224 217 233 236 238 231 222 213 213 209 207 212 221 219 227 218 210 213 217 222 225 225 228 231 228 230 239 241 237 238 239 240 235 230 235 231 225 217 214 213 213 216 219 221 229
208 206 203 212 215 234 268 248 182 211 217 218 217 217 217 223 222 230 233 216 221 228 225 223 224 221 222 230 233 234 236 235 234 237 237 235 236 232 234 234 232 222 220 216 217 220 223 225 235
Height
3161 3160 3160 3161 3165 3162 3161 3162 3161 3162 3162 3161 3160 3162 3164 3165 3167 3171 3170 3172 3176 3178 3182 3185 3189 3193 3195 3199 3201 3203 3205 3206 3207 3208 3210 3210 3210 3211 3211 3211 3211 3211 3211 3210 3210 3210 3210 3209 3209
3163 3162 3162 3162 3165 3161 3163 3163 3163 3163 3161 3161 3161 3163 3164 3165 3167 3169 3170 3174 3178 3181 3185 3188 3192 3196 3199 3202 3204 3206 3207 3208 3209 3210 3211 3211 3212 3213 3212 3213 3213 3213 3212 3212 3211 3211 3210 3209 3210
3163 3163 3164 3165 3165 3164 3163 3164 3163 3161 3160 3163 3162 3163 3164 3164 3168 3170 3172 3177 3180 3184 3188 3191 3194 3198 3201 3204 3206 3208 3209 3210 3211 3212 3213 3213 3214 3214 3214 3215 3214 3215 3215 3214 3213 3211 3212 3212 3212
3165 3165 3167 3166 3165 3166 3165 3164 3163 3162 3162 3162 3163 3162 3164 3165 3169 3172 3174 3179 3183 3187 3190 3193 3197 3200 3203 3206 3208 3210 3211 3212 3213 3214 3214 3214 3215 3216 3217 3217 3217 3217 3217 3216 3215 3215 3214 3214 3213
3166 3166 3169 3166 3166 3167 3166 3165 3165 3166 3164 3162 3162 3160 3162 3166 3171 3173 3177 3181 3185 3189 3192 3195 3199 3202 3205 3208 3210 3211 3212 3214 3214 3215 3215 3216 3217 3218 3218 3218 3219 3219 3219 3218 3217 3217 3216 3216 3215
3166 3167 3166 3162 3167 3167 3167 3166 3167 3166 3163 3163 3163 3162 3164 3167 3172 3175 3179 3183 3188 3190 3193 3197 3200 3204 3207 3210 3211 3213 3214 3215 3215 3216 3217 3218 3219 3219 3219 3220 3220 3220 3220 3219 3218 3218 3218 3217 3216
3167 3171 3169 3168 3168 3168 3168 3168 3169 3168 3166 3166 3167 3167 3168 3170 3175 3178 3181 3186 3189 3192 3195 3199 3203 3205 3208 3211 3212 3214 3215 3216 3217 3218 3219 3220 3220 3221 3221 3222 3222 3221 3221 3220 3219 3219 3218 3219 3218
3167 3169 3169 3169 3168 3170 3168 3169 3168 3169 3168 3168 3170 3171 3171 3172 3176 3180 3184 3187 3191 3193 3197 3200 3204 3207 3209 3211 3213 3215 3216 3218 3219 3220 3221 3221 3221 3222 3223 3223 3223 3223 3222 3222 3221 3220 3219 3219 3218
3167 3170 3168 3169 3169 3171 3169 3170 3168 3169 3169 3170 3171 3173 3175 3175 3178 3181 3185 3188 3191 3194 3198 3201 3205 3207 3210 3212 3214 3216 3217 3219 3220 3222 3222 3222 3223 3223 3224 3224 3224 3224 3224 3223 3223 3222 3221 3220 3218
3166 3168 3168 3169 3170 3170 3170 3171 3169 3171 3170 3172 3173 3174 3177 3178 3179 3182 3185 3188 3191 3194 3198 3201 3205 3208 3210 3213 3215 3217 3219 3220 3222 3223 3223 3224 3224 3224 3225 3225 3225 3225 3225 3225 3224 3223 3222 3223 3223
3165 3168 3168 3169 3168 3168 3170 3171 3172 3173 3173 3173 3174 3175 3177 3179 3181 3183 3186 3190 3193 3196 3198 3201 3204 3208 3211 3213 3215 3217 3219 3221 3222 3223 3224 3225 3226 3226 3226 3226 3227 3227 3227 3228 3225 3225 3223 3222 3221
3164 3164 3166 3169 3168 3169 3171 3172 3173 3173 3175 3174 3174 3175 3177 3180 3182 3185 3187 3191 3193 3196 3199 3202 3204 3207 3210 3213 3216 3218 3219 3221 3223 3224 3225 3226 3226 3227 3227 3228 3228 3228 3227 3227 3226 3224 3223 3222 3220
3160 3164 3164 3165 3167 3169 3170 3172 3173 3173 3173 3174 3174 3175 3176 3179 3183 3185 3189 3191 3194 3197 3199 3202 3204 3207 3210 3213 3216 3218 3220 3221 3223 3224 3225 3226 3227 3227 3228 3228 3228 3228 3228 3226 3225 3225 3223 3222 3222
3160 3160 3162 3164 3166 3167 3168 3170 3171 3173 3171 3173 3174 3175 3176 3179 3182 3184 3187 3190 3193 3197 3199 3202 3204 3207 3210 3213 3216 3218 3220 3222 3223 3224 3225 3226 3227 3228 3228 3228 3228 3228 3227 3227 3225 3224 3223 3222 3222
3157 3158 3160 3160 3163 3165 3166 3168 3169 3172 3170 3171 3173 3175 3176 3178 3180 3183 3187 3190 3193 3196 3199 3202 3204 3207 3210 3213 3216 3218 3220 3222 3223 3224 3224 3226 3227 3227 3228 3228 3228 3228 3227 3227 3225 3225 3223 3221 3220
3152 3156 3157 3158 3161 3162 3165 3165 3165 3167 3167 3168 3171 3174 3175 3176 3178 3182 3185 3188 3191 3195 3197 3201 3204 3206 3209 3212 3215 3217 3219 3221 3222 3223 3224 3225 3226 3227 3228 3228 3228 3228 3227 3226 3226 3225 3224 3221 3219
3148 3149 3152 3154 3157 3160 3162 3163 3163 3164 3163 3166 3168 3171 3174 3175 3177 3179 3182 3186 3189 3193 3195 3199 3202 3205 3208 3211 3213 3216 3218 3220 3221 3222 3223 3224 3225 3226 3227 3228 3229 3229 3228 3226 3226 3225 3222 3220 3219
3142 3146 3147 3150 3154 3156 3158 3160 3161 3161 3161 3163 3165 3168 3171 3173 3175 3176 3179 3183 3186 3189 3193 3197 3200 3204 3207 3209 3211 3214 3216 3218 3220 3221 3222 3223 3224 3225 3226 3227 3228 3229 3228 3227 3226 3225 3223 3221 3220
3140 3143 3145 3148 3151 3153 3153 3156 3158 3157 3158 3160 3161 3164 3168 3170 3174 3175 3177 3180 3182 3186 3190 3193 3197 3201 3204 3207 3210 3212 3215 3217 3218 3220 3220 3222 3223 3224 3225 3226 3227 3228 3228 3228 3226 3225 3224 3222 3221
3136 3139 3140 3145 3147 3149 3150 3151 3153 3154 3155 3156 3158 3160 3164 3167 3169 3171 3173 3176 3179 3183 3187 3190 3194 3198 3201 3205 3208 3210 3213 3215 3216 3218 3219 3220 3221 3222 3224 3225 3226 3227 3228 3228 3227 3227 3225 3224 3222
3128 3131 3137 3141 3143 3144 3146 3146 3148 3150 3152 3153 3155 3157 3160 3164 3166 3168 3170 3172 3175 3179 3183 3187 3191 3195 3199 3202 3205 3207 3210 3212 3214 3215 3218 3219 3220 3221 3222 3225 3225 3227 3227 3228 3228 3228 3227 3226 3224
3121 3129 3134 3137 3140 3139 3141 3138 3139 3143 3146 3149 3151 3151 3155 3157 3162 3164 3166 3169 3171 3176 3180 3184 3189 3192 3195 3199 3202 3205 3208 3210 3212 3214 3215 3216 3218 3219 3220 3221 3223 3225 3226 3227 3228 3228 3228 3227 3226
3116 3126 3128 3133 3135 3137 3135 3136 3133 3136 3140 3143 3146 3148 3148 3152 3156 3161 3162 3165 3169 3173 3176 3181 3185 3189 3192 3196 3199 3203 3205 3207 3209 3210 3212 3214 3215 3216 3218 3219 3220 3222 3224 3226 3227 3228 3228 3228 3227
3116 3121 3124 3127 3130 3124 3124 3129 3123 3127 3132 3137 3141 3143 3145 3147 3151 3156 3160 3163 3165 3169 3173 3177 3181 3185 3188 3192 3195 3199 3202 3204 3206 3208 3210 3211 3213 3214 3215 3217 3218 3220 3222 3224 3226 3227 3228 3228 3227
3108 3113 3114 3117 3112 3105 3118 3119 3116 3121 3126 3130 3135 3139 3141 3142 3146 3151 3154 3158 3162 3165 3168 3172 3176 3181 3184 3188 3191 3195 3198 3201 3203 3205 3206 3208 3210 3211 3213 3214 3216 3218 3220 3222 3224 3225 3227 3228 3228
3096 3101 3097 3098 3095 3103 3111 3102 3105 3116 3121 3124 3128 3134 3137 3137 3142 3146 3150 3154 3158 3162 3166 3169 3172 3177 3180 3184 3187 3191 3195 3197 3199 3201 3203 3205 3207 3209 3209 3210 3212 3215 3217 3220 3221 3223 3225 3226 3227
3089 3089 3095 3095 3095 3095 3092 3100 3106 3107 3111 3116 3121 3127 3132 3133 3137 3142 3146 3149 3153 3157 3160 3164 3167 3171 3174 3178 3182 3186 3190 3192 3195 3198 3200 3201 3203 3205 3206 3207 3209 3211 3214 3217 3219 3221 3222 3223 3225
3081 3089 3094 3091 3091 3092 3089 3092 3093 3096 3101 3107 3113 3120 3125 3129 3134 3137 3141 3144 3147 3151 3156 3160 3163 3167 3170 3173 3176 3179 3183 3187 3190 3192 3194 3196 3199 3200 3201 3203 3205 3207 3210 3213 3215 3218 3219 3221 3222
3073 3076 3082 3088 3085 3082 3083 3082 3086 3091 3095 3100 3106 3113 3120 3124 3129 3133 3137 3140 3142 3145 3148 3152 3156 3160 3164 3167 3170 3173 3176 3180 3183 3185 3188 3191 3193 3196 3197 3199 3201 3204 3206 3209 3212 3214 3216 3217 3218
3066 3069 3073 3075 3080 3082 3080 3079 3081 3086 3090 3096 3103 3108 3115 3120 3125 3128 3132 3134 3137 3140 3143 3146 3150 3153 3157 3162 3165 3168 3172 3174 3176 3178 3182 3185 3187 3190 3192 3194 3196 3198 3201 3204 3207 3210 3212 3213 3214